Location: Unspecified
(51.3762°N, 0.0000°E)
Time: 05:12:22
(UTC+00:00)

nSIGHT-1 - Pass Details

Date: 31 August 2019
Orbit: 342 x 348 km, 51.6° (Epoch: 19 September)

Event Time Altitude Azimuth Distance (km) Brightness Sun altitude
Exits shadow 03:03:41 81° 326° (NW) 352 ? -18.1°
Maximum altitude 03:03:45 83° 1° (N) 351 ? -18.1°
Drops below altitude 10° 03:06:39 10° 91° (E) 1,296 ? -17.8°
Sets 03:08:39 0° 92° (E) 2,137 ? -17.5°
